DL6MM-4 Weather Reports


time (UTC)temp
C
wind
direction
speed
KPH
gust
KPH
rain 1hr
cm
rain 24hr
cm
rain mn
cm
humidity
%
barometer
mb
20260902163003 20 0 0.0 6.4 0.00 0.00 0.00 57 1017.5
20260902162004 20 0 0.0 4.8 0.00 0.00 0.00 57 1017.5
20260902161003 21 0 0.0 6.4 0.00 0.00 0.00 57 1017.5
20260902160004 21 0 0.0 9.7 0.00 0.00 0.00 57 1017.5
20260902155003 21 0 0.0 9.7 0.00 0.00 0.00 56 1017.6
20260902154003 21 0 0.0 6.4 0.00 0.00 0.00 58 1017.7
20260902153003 21 0 0.0 12.9 0.00 0.00 0.00 56 1017.7
20260902152003 22 0 0.0 9.7 0.00 0.00 0.00 56 1017.7
20260902151003 22 0 0.0 12.9 0.00 0.00 0.00 55 1017.6
20260902150003 22 258 1.6 14.5 0.00 0.00 0.00 54 1017.6
20260902145003 22 0 0.0 12.9 0.00 0.00 0.00 55 1017.7
20260902144003 22 0 0.0 9.7 0.00 0.00 0.00 55 1017.7
20260902143003 21 295 1.6 12.9 0.00 0.03 0.00 57 1018.0
20260902142003 22 296 1.6 12.9 0.00 0.03 0.00 57 1017.9
20260902141003 21 0 0.0 4.8 0.00 0.05 0.00 60 1017.9
20260902140003 22 0 0.0 14.5 0.00 0.08 0.00 58 1017.7
20260902135003 21 0 0.0 9.7 0.00 0.13 0.00 62 1017.7
20260902134003 21 0 0.0 9.7 0.00 0.18 0.00 61 1017.9
20260902133003 21 0 0.0 1.6 0.00 0.18 0.00 64 1017.9
20260902132003 21 0 0.0 4.8 0.00 0.18 0.00 65 1017.7
20260902131003 21 0 0.0 1.6 0.00 0.18 0.00 65 1017.9
20260902130003 21 0 0.0 12.9 0.00 0.18 0.00 65 1017.9
20260902125003 21 0 0.0 6.4 0.00 0.18 0.00 67 1018.0
20260902124003 21 0 0.0 6.4 0.00 0.18 0.00 65 1018.0
20260902123003 21 0 0.0 9.7 0.00 0.18 0.00 65 1017.9
20260902122003 21 0 0.0 9.7 0.00 0.18 0.00 66 1018.0
20260902121003 20 0 0.0 9.7 0.00 0.18 0.00 68 1018.1
20260902120003 20 0 0.0 9.7 0.00 0.18 0.00 70 1018.2
20260902115003 20 0 0.0 9.7 0.00 0.18 0.00 72 1018.2
20260902114003 20 0 0.0 4.8 0.00 0.18 0.00 75 1018.2
20260902113003 20 0 0.0 14.5 0.00 0.18 0.00 73 1018.2
20260902112003 20 0 0.0 1.6 0.00 0.18 0.00 74 1018.1
20260902111003 20 0 0.0 4.8 0.00 0.18 0.00 76 1018.2
20260902110004 20 0 0.0 1.6 0.00 0.18 0.00 75 1018.2
20260902105003 20 0 0.0 6.4 0.00 0.18 0.00 75 1018.4
20260902104003 20 0 0.0 4.8 0.00 0.18 0.00 75 1018.4
20260902103003 20 0 0.0 4.8 0.00 0.18 0.00 74 1018.5
20260902102003 20 0 0.0 4.8 0.00 0.18 0.00 75 1018.6
20260902101003 19 0 0.0 1.6 0.00 0.18 0.00 79 1018.7
20260902100003 18 0 0.0 6.4 0.00 0.18 0.00 81 1018.7
20260902095003 18 0 0.0 4.8 0.00 0.18 0.00 82 1018.7
20260902094003 17 0 0.0 6.4 0.00 0.18 0.00 84 1018.6
20260902093003 17 0 0.0 6.4 0.00 0.18 0.00 84 1018.7
20260902092003 17 0 0.0 6.4 0.00 0.18 0.00 85 1018.6
20260902091003 16 0 0.0 9.7 0.00 0.18 0.00 84 1018.7
20260902090004 16 0 0.0 1.6 0.00 0.18 0.00 86 1018.7
20260902085003 16 0 0.0 4.8 0.00 0.18 0.00 86 1018.7
20260902084003 16 0 0.0 1.6 0.00 0.18 0.00 87 1018.6
20260902083003 16 0 0.0 1.6 0.00 0.18 0.00 87 1018.5
20260902082003 16 0 0.0 1.6 0.00 0.18 0.00 88 1018.5
20260902081003 15 0 0.0 1.6 0.00 0.18 0.00 88 1018.5
20260902080003 15 0 0.0 4.8 0.00 0.18 0.00 88 1018.6
20260902075003 15 0 0.0 0.0 0.00 0.18 0.00 86 1018.6
20260902074003 14 0 0.0 1.6 0.00 0.18 0.00 87 1018.5
20260902073003 14 0 0.0 4.8 0.00 0.18 0.00 85 1018.6
20260902072003 14 0 0.0 1.6 0.00 0.18 0.00 84 1018.6
20260902071003 14 0 0.0 4.8 0.00 0.18 0.00 82 1018.5
20260902070003 13 0 0.0 4.8 0.00 0.18 0.00 82 1018.5
20260902065003 13 0 0.0 1.6 0.00 0.18 0.00 82 1018.5
20260902064003 13 0 0.0 0.0 0.00 0.18 0.00 82 1018.6
20260902063003 12 0 0.0 0.0 0.00 0.18 0.00 82 1018.6
20260902062003 12 0 0.0 0.0 0.00 0.18 0.00 82 1018.6
20260902061003 12 0 0.0 0.0 0.00 0.18 0.00 82 1018.6
20260902060003 12 0 0.0 0.0 0.00 0.18 0.00 82 1018.6
20260902055003 12 0 0.0 1.6 0.00 0.18 0.00 82 1018.5
20260902054003 12 0 0.0 1.6 0.00 0.18 0.00 82 1018.5
20260902053003 12 0 0.0 0.0 0.00 0.18 0.00 83 1018.5
20260902052003 12 0 0.0 0.0 0.00 0.18 0.00 83 1018.6
20260902051003 12 0 0.0 0.0 0.00 0.18 0.00 83 1018.6
20260902050004 12 0 0.0 0.0 0.00 0.18 0.00 83 1018.6
20260902045003 12 0 0.0 0.0 0.00 0.18 0.00 82 1018.5
20260902044003 12 0 0.0 1.6 0.00 0.18 0.00 82 1018.2
20260902043003 11 0 0.0 0.0 0.00 0.18 0.00 83 1018.4
20260902042003 11 0 0.0 1.6 0.00 0.18 0.00 83 1018.5
20260902041003 11 0 0.0 0.0 0.00 0.18 0.00 83 1018.6
20260902040003 11 0 0.0 0.0 0.00 0.18 0.00 83 1018.7
20260902035003 11 0 0.0 0.0 0.00 0.18 0.00 83 1018.7
20260902034003 11 0 0.0 0.0 0.00 0.18 0.00 83 1018.7
20260902033003 11 0 0.0 0.0 0.00 0.18 0.00 83 1018.9
20260902032003 11 0 0.0 0.0 0.00 0.18 0.00 83 1018.7
20260902031003 11 0 0.0 0.0 0.00 0.18 0.00 83 1018.6
20260902030003 11 0 0.0 0.0 0.00 0.18 0.00 83 1018.7
20260902025003 11 0 0.0 0.0 0.00 0.18 0.00 83 1018.9
20260902024003 11 0 0.0 0.0 0.00 0.18 0.00 83 1019.0
20260902023003 11 0 0.0 0.0 0.00 0.18 0.00 84 1019.0
20260902022003 11 0 0.0 0.0 0.00 0.18 0.00 84 1019.0
20260902021003 11 0 0.0 0.0 0.00 0.18 0.00 84 1018.9
20260902020003 11 0 0.0 0.0 0.00 0.18 0.00 83 1018.9
20260902015003 11 0 0.0 0.0 0.00 0.18 0.00 83 1019.0
20260902014003 11 0 0.0 0.0 0.00 0.18 0.00 83 1019.0
20260902013003 11 0 0.0 0.0 0.00 0.18 0.00 83 1018.9
20260902012003 10 0 0.0 0.0 0.00 0.18 0.00 84 1018.9
20260902011003 10 0 0.0 0.0 0.00 0.18 0.00 84 1018.9
20260902010003 10 0 0.0 0.0 0.00 0.18 0.00 85 1018.7
20260902005003 10 0 0.0 0.0 0.00 0.18 0.00 85 1018.7
20260902004003 10 0 0.0 0.0 0.00 0.18 0.00 84 1018.9
20260902003003 11 0 0.0 1.6 0.00 0.18 0.00 84 1018.9
20260902002003 10 0 0.0 0.0 0.00 0.20 0.00 84 1019.0
20260902001003 10 0 0.0 0.0 0.00 0.23 0.00 84 1019.0
20260902000003 10 0 0.0 0.0 0.00 0.25 0.00 85 1019.1
20260901235003 10 0 0.0 0.0 0.00 0.25 0.00 85 1019.2
20260901234003 11 0 0.0 0.0 0.00 0.25 0.00 85 1019.1
20260901233003 11 0 0.0 0.0 0.00 0.25 0.00 84 1019.1
20260901232003 11 0 0.0 0.0 0.00 0.25 0.00 85 1019.1
20260901231003 11 0 0.0 0.0 0.00 0.25 0.00 86 1019.2
20260901230003 11 0 0.0 0.0 0.00 0.25 0.00 86 1019.1
20260901225003 11 0 0.0 0.0 0.00 0.25 0.00 86 1019.1
20260901224003 11 0 0.0 0.0 0.00 0.25 0.00 85 1019.1
20260901223003 11 0 0.0 0.0 0.00 0.25 0.00 86 1019.1
20260901222003 11 0 0.0 0.0 0.00 0.25 0.00 86 1019.1
20260901221003 11 0 0.0 0.0 0.00 0.25 0.00 86 1019.1
20260901220003 11 0 0.0 0.0 0.00 0.25 0.00 87 1019.0
20260901215003 12 0 0.0 1.6 0.00 0.25 0.00 86 1019.0
20260901214003 12 0 0.0 1.6 0.00 0.28 0.00 86 1019.1
20260901213003 12 0 0.0 0.0 0.00 0.28 0.00 85 1019.1
20260901212003 12 0 0.0 0.0 0.00 0.28 0.00 86 1019.0
20260901211003 12 0 0.0 0.0 0.00 0.28 0.00 87 1018.9
20260901210003 12 0 0.0 0.0 0.00 0.28 0.00 87 1019.0
20260901205003 12 0 0.0 0.0 0.00 0.28 0.00 87 1019.0
20260901204003 13 0 0.0 0.0 0.00 0.28 0.00 87 1018.9
20260901203003 13 0 0.0 0.0 0.00 0.28 0.00 87 1019.0
20260901202003 13 0 0.0 1.6 0.00 0.28 0.00 87 1019.0
20260901201003 13 0 0.0 0.0 0.00 0.28 0.00 87 1019.0
20260901200003 13 0 0.0 0.0 0.00 0.28 0.00 88 1018.9
20260901195003 13 0 0.0 0.0 0.00 0.28 0.00 87 1019.0
20260901194003 14 0 0.0 1.6 0.00 0.28 0.00 87 1018.9
20260901193003 14 0 0.0 4.8 0.00 0.28 0.00 87 1018.9
20260901192003 14 0 0.0 4.8 0.00 0.28 0.00 88 1018.9
20260901191003 15 0 0.0 0.0 0.00 0.28 0.00 87 1018.7
20260901190003 15 0 0.0 0.0 0.00 0.28 0.00 87 1018.7
20260901185003 15 0 0.0 1.6 0.00 0.28 0.00 87 1018.6
20260901184003 16 0 0.0 4.8 0.00 0.28 0.00 87 1018.5
20260901183003 16 0 0.0 4.8 0.00 0.28 0.00 87 1018.4
20260901182003 16 0 0.0 4.8 0.00 0.28 0.00 86 1018.2
20260901181003 16 0 0.0 4.8 0.00 0.28 0.00 86 1018.1
20260901180003 16 0 0.0 17.7 0.00 0.28 0.00 86 1018.1
20260901175003 16 0 0.0 4.8 0.00 0.28 0.00 86 1018.0
20260901174003 16 0 0.0 12.9 0.00 0.28 0.00 86 1017.7
20260901173003 16 0 0.0 6.4 0.00 0.28 0.00 86 1017.7
20260901172003 16 0 0.0 6.4 0.00 0.28 0.00 85 1017.6
20260901171003 16 0 0.0 14.5 0.00 0.28 0.00 85 1017.6
20260901170003 17 0 0.0 22.5 0.00 0.28 0.00 85 1017.7
20260901165003 17 0 0.0 9.7 0.00 0.28 0.00 85 1017.7
20260901164003 17 0 0.0 12.9 0.00 0.28 0.00 85 1017.7